Regional Weather Roundup
Issued by NWS Cleveland, OH

Home | Current Version | Previous Version | Text Only | Print | Product List | Glossary Off
Versions: 1 2 3 4 5 6 7 8 9 10 11 12 13 14 15 16 17 18 19 20 21 22 23 24 25 26 27 28 29 30 31 32 33 34 35 36 37 38 39 40 41 42 43 44 45 46 47 48 49 50

000
ASUS41 KCLE 050100
RWRCLE
OHIO REGIONAL WEATHER ROUNDUP
NATIONAL WEATHER SERVICE WILMINGTON, OH
800 PM EST SUN DEC 04 2016

NOTE: "FAIR" INDICATES FEW OR NO CLOUDS BELOW 12,000 FEET WITH NO
SIGNIFICANT WEATHER AND/OR OBSTRUCTIONS TO VISIBILITY.

OHZ001>008-015>018-024>027-034-035-043-044-050200-
   NORTHWEST OHIO

CITY           SKY/WX    TMP DP  RH WIND       PRES   REMARKS
DEFIANCE       LGT SNOW  34  31  88 SE9       29.85F FOG     WCI  27
FINDLAY        LGT SNOW  34  30  85 SE10      29.84F VSB 1   WCI  26
TOLEDO EXPRESS LGT SNOW  32  32 100 E9G17     29.85F FOG     WCI  24
TOLEDO EXEC    LGT SNOW  33  33 100 E10       29.87F VSB 3/4 WCI  25
LIMA           LGT SNOW  33  33 100 SE12      29.85F FOG     WCI  24
$$

OHZ009>014-019>023-028>033-038-089-050200-
   NORTHEAST OHIO

CITY           SKY/WX    TMP DP  RH WIND       PRES   REMARKS
CLE-HOPKINS    CLOUDY    41  28  60 S12       29.91F
CLE-LAKEFRONT  CLOUDY    42  28  57 SE14      29.88F
CUY CO. ARPT   CLOUDY    41  30  65 SE17      29.90F
LORAIN-ELYRIA  LGT RAIN  37  30  75 S12       29.90F
ASHTABULA      CLOUDY    38  29  70 SE10      29.92F
AKRON-CANTON   FLURRIES  38  29  70 SE13      29.90F
WOOSTER        NOT AVBL
MANSFIELD      LGT SNOW  33  33 100 SE8       29.87F FOG     WCI  26
YOUNGSTOWN     CLOUDY    38  28  67 E10       29.91F
$$

OHZ042-051>053-060>062-070>072-077>081-050200-
  SOUTHWEST OHIO

CITY           SKY/WX    TMP DP  RH WIND       PRES   REMARKS
CINC-COVINGTON LGT RAIN  42  41  96 S8        29.87F FOG
CINC-LUNKEN    LGT RAIN  41  41 100 S3        29.90F FOG
HAMILTON       LGT RAIN  40  38  93 CALM      29.89F FOG
DAYTON         NOT AVBL
WRIGHT-PAT AFB NOT AVBL
DAYTON GENERAL LGT RAIN  38  35  89 SE5       29.87F FOG
WILMINGTON     LGT RAIN  37  37 100 SE7       29.87F FOG
$$

OHZ036-037-039>041-045>050-054>059-063>069-073>076-082>088-050200-
  CENTRAL AND SOUTHEAST OHIO

CITY           SKY/WX    TMP DP  RH WIND       PRES   REMARKS
COLUMBUS       RAIN      37  37 100 SE6       29.90F FOG
OSU AIRPORT    LGT RAIN  37  36  96 SE8       29.89F FOG
BOLTON FIELD   NOT AVBL
RICKENBACK AFB NOT AVBL
NEWARK         LGT RAIN  37  34  89 SE3       29.90F FOG
MARION         LGT SNOW  33  32  96 SE8       29.88F FOG     WCI  26
LANCASTER      RAIN      38  35  89 SE7       29.90F FOG
ZANESVILLE     LGT RAIN  38  34  85 E3        29.90F
NEW PHILLY     LGT RAIN  37  34  89 E3        29.91F
$$



USA.gov is the U.S. government's official web portal to all federal, state and local government web resources and services.